Location: *
(50.3440°N, 18.6237°E)
Time: 16:29:06
(UTC+00:00)

Cosmos 1743 Rocket - Pass Details

Date: 30 November 2020
Orbit: 603 x 634 km, 82.6° (Epoch: 17 January)

Event Time Altitude Azimuth Distance (km) Brightness Sun altitude
Rises 15:15:42 0° 347° (NNW) 2,940 6.9 -4.9°
Reaches altitude 10° 15:17:58 10° 345° (NNW) 2,024 6.1 -5.3°
Maximum altitude 15:22:25 65° 264° (W) 695 4.1 -5.9°
Drops below altitude 10° 15:26:48 10° 183° (S) 1,992 6.6 -6.5°
Sets 15:29:01 0° 180° (S) 2,889 7.4 -6.8°
